User: anonymous   Login
Location: Chevoux
(46.3801°N, 4.9476°E)
Time: 05:05:53
(UTC+00:00)
Language:

SeaSat 1 - Orbit

View from above orbital plane
View from above orbital plane
View from above satellite
View from above satellite

Ground track
Ground track

The orbit data is extracted from the following two-line orbital elements,

1 10967U 78064A   21112.67861012 -.00000035  00000-0  29821-4 0  9991
2 10967 107.9994 357.1353 0002642 267.2070  92.8772 14.43872817249453
Epoch (UTC): 22 April 2021 16:17:11
Eccentricity: 0.0002642
inclination: 107.9994°
perigee height: 744 km
apogee height: 747 km
right ascension of ascending node: 357.1353°
argument of perigee: 267.2070°
revolutions per day: 14.43872817
mean anomaly at epoch: 92.8772°
orbit number at epoch: 24945

The dashed part of the orbit path shows where the satellite is in the earth's shadow,  

DLR